Home > Weather > Naha > Past weeks

Flag for Japan Past Weather in Naha, Okinawa, Japan — Yesterday and Last 2 Weeks

Now
82 °F

Passing clouds.


Feels Like: 92 °F
Forecast: 83 / 88 °F
Wind: 13 mph from North

Location: Naha Airport

Current Time: Aug 26, 2016 at 7:11:56 AM

Latest Report: Aug 26, 2016 at 6:30 AM


Visibility: N/A

Pressure: 29.50 "Hg

Humidity: 89%

Dew Point: 79 °F

Location of NahaLocation

Past Weather in Naha — Graph

°F

Naha Temperature Yesterday

Maximum temperature yesterday: 90 °F (at 10:00 AM)
Minimum temperature yesterday: 82 °F (at 4:30 PM)
Average temperature yesterday: 86 °F

High & Low Weather Summary for the Past Weeks

 TemperatureHumidityPressure
High93 °F (Aug 12, 1:30 PM)89% (Aug 11, 6:30 AM)29.74 "Hg (Aug 11, 6:30 AM)
Low81 °F (Aug 20, 6:30 PM)55% (Aug 16, 5:30 PM)29.45 "Hg (Aug 25, 3:00 PM)
Average86 °F74%29.61 "Hg
* Reported Aug 11 6:00 AM — Aug 26 6:00 AM, Naha, Weather by CustomWeather, © 2016

Note: Actual official high and low records may vary slightly from our data, if they occured in-between our weather recording intervals... More about our weather records

Advertising

Naha Weather History for the Previous 24 Hours

Scroll right to see more
 ConditionsComfort  
Time TempWeatherWind HumidityBarometerVisibility
6:00 AM
Fri, Aug 26
82 °FPassing clouds.14 mph84%29.50 "HgN/A
5:30 AM84 °FPassing clouds.13 mph84%29.47 "HgN/A
5:00 AM84 °FPassing clouds.13 mph84%29.47 "HgN/A
4:30 AM84 °FPassing clouds.12 mph79%29.47 "HgN/A
4:00 AM84 °FScattered showers. Passing clouds.12 mph79%29.47 "HgN/A
3:30 AM84 °FPassing clouds.9 mph79%29.47 "HgN/A
3:00 AM84 °FPassing clouds.12 mph79%29.47 "HgN/A
2:30 AM82 °FPassing clouds.9 mph84%29.47 "HgN/A
2:00 AM82 °FPassing clouds.13 mph84%29.47 "HgN/A
1:30 AM82 °FSprinkles. Passing clouds.10 mph84%29.47 "HgN/A
1:00 AM84 °FScattered showers. Passing clouds.12 mph79%29.47 "HgN/A
12:30 AM84 °FPassing clouds.14 mph79%29.50 "HgN/A
12:00 AM84 °FScattered showers. Passing clouds.14 mph79%29.50 "HgN/A
11:30 PM
Thu, Aug 25
84 °FPartly cloudy.10 mph79%29.50 "HgN/A
11:00 PM84 °FPassing clouds.14 mph79%29.50 "HgN/A
10:30 PM84 °FPassing clouds.12 mph79%29.50 "HgN/A
10:00 PM84 °FPassing clouds.12 mph79%29.50 "HgN/A
9:30 PM84 °FScattered showers. Passing clouds.12 mph79%29.50 "HgN/A
9:00 PM84 °FPassing clouds.12 mph79%29.50 "HgN/A
8:30 PM86 °FPassing clouds.14 mph75%29.50 "HgN/A
8:00 PM86 °FPassing clouds.10 mph75%29.50 "HgN/A
7:30 PM86 °FPassing clouds.10 mph75%29.47 "HgN/A
7:00 PM86 °FPassing clouds.10 mph75%29.47 "HgN/A
6:30 PM86 °FBroken clouds.14 mph79%29.47 "HgN/A
6:00 PM86 °FBroken clouds.14 mph79%29.47 "HgN/A
5:30 PM84 °FSprinkles. Broken clouds.9 mph89%29.47 "HgN/A
5:00 PM86 °FRain showers. Broken clouds.8 mph84%29.47 "HgN/A
4:30 PM82 °FRain showers. Scattered clouds.16 mph84%29.47 "HgN/A
4:00 PM88 °FRain showers. Scattered clouds.21 mph79%29.47 "Hg5 mi
3:48 PM90 °FRain showers. Scattered clouds.22 mph75%29.45 "HgN/A
3:30 PM90 °FScattered showers. Scattered clouds.22 mph75%29.45 "HgN/A
3:00 PM90 °FScattered showers. Scattered clouds.21 mph75%29.45 "HgN/A
2:30 PM90 °FScattered showers. Scattered clouds.21 mph75%29.47 "HgN/A
2:00 PM88 °FScattered clouds.15 mph79%29.47 "HgN/A
1:30 PM84 °FRain showers. Scattered clouds.8 mph84%29.50 "HgN/A
1:00 PM86 °FRain showers. Broken clouds.8 mph84%29.50 "HgN/A
12:45 PM86 °FLots of rain. Broken clouds.9 mph84%29.50 "Hg1 mi
12:30 PM88 °FRain showers. Broken clouds.18 mph75%29.50 "HgN/A
12:00 PM86 °FRain showers. Partly sunny.16 mph84%29.50 "HgN/A
11:30 AM88 °FSprinkles. Broken clouds.21 mph75%29.50 "HgN/A
11:00 AM90 °FRain showers. Scattered clouds.21 mph75%29.50 "HgN/A
10:30 AM90 °FSprinkles. Scattered clouds.17 mph71%29.53 "HgN/A
10:00 AM90 °FScattered showers. Scattered clouds.17 mph71%29.53 "HgN/A
9:30 AM88 °FScattered clouds.15 mph75%29.53 "HgN/A
9:00 AM88 °FScattered clouds.14 mph75%29.53 "HgN/A
8:30 AM88 °FPassing clouds.13 mph75%29.53 "HgN/A
8:00 AM86 °FPassing clouds.16 mph79%29.53 "HgN/A
7:30 AM86 °FPassing clouds.14 mph79%29.50 "HgN/A
7:00 AM86 °FPassing clouds.13 mph79%29.50 "HgN/A
Weather by CustomWeather, © 2016

See weather overviewHow to use our weather pages